Honolulu, HI

4:41 PM HST on February 21, 2017 (GMT -1000)
Honolulu Harbor Pier 35 | | Change Station
Active Advisory: Small Craft Advisory

Elev 0 ft 21.32 °N, 157.88 °W | Updated 1 second ago

Mostly Cloudy
Mostly Cloudy
75.8 °F
Feels Like 78 °F
N
13.0
Wind Variable Wind from East
Gusts 28.0 mph

Today
High -- | Low -- °F
--% Chance of Precip.
Yesterday
High -- | Low -- °F
Precip. -- in
Pressure 30.18 in
Visibility 10.0 miles
Clouds Few 3600 ft
Scattered Clouds 4500 ft
Mostly Cloudy 5500 ft
Heat Index 78 °F
Dew Point 61 °F
Humidity 60%
Rainfall 0.20 in
Snow Depth Not available.
6:57 AM 6:32 PM
Waning Crescent, 21% visible
METAR PHNL 220153Z 06014G21KT 10SM FEW036 SCT045 BKN055 25/14 A3018 RMK AO2 PK WND 06026/0102 SLP218 T02500144 $
Pressure 30.18 in
Visibility 10.0 miles
Clouds Few 3600 ft
Scattered Clouds 4500 ft
Mostly Cloudy 5500 ft
Heat Index 78 °F
Dew Point 61 °F
Humidity 60%
Rainfall 0.20 in
Snow Depth Not available.
6:57 AM 6:32 PM
Waning Crescent, 21% visible
METAR PHNL 220153Z 06014G21KT 10SM FEW036 SCT045 BKN055 25/14 A3018 RMK AO2 PK WND 06026/0102 SLP218 T02500144 $

Get Your Daily Forecast Email!

Thanks for signing up!

Be on the lookout for a verification email in your inbox.

You'll start receiving the daily forecast at 8 AM.

×

10-Day Weather Forecast

Almanac

Astronomy

Feb. 21, 2017 Rise Set
Actual Time
Civil Twilight
Nautical Twilight
Astronomical Twilight
Moon
Length of Visible Light
Length of Day
Tomorrow will be .
, % of the Moon is Illuminated

Today's Extremes

State Highs State Lows

Community

WunderPhotos

Upload Photos

1,962,540 photos uploaded!

WunderBlog® & News

Nearby

Air Quality

  Air Quality AQ Index Pollutant
Not available.

Snow Depth

Station Depth Elevation

Earthquake Activity

City Distance Mag. Time & Date
Minimum magnitude displayed is 2.5.

Coastal Water Temperatures

Place Temperature

Stations

Nearby Weather Stations

Station Location Temp. Windchill Dew Point Humidity Wind Precip. Elev Updated Type
                   

Watches & Warnings

Small Craft Advisory
Issued: 3:49 PM HST Feb. 21, 2017 – National Weather Service

... Small Craft Advisory remains in effect until 6 PM HST
Wednesday...

* winds and seas... east winds 20 to 30 kt. Seas 8 to 11 ft.

Precautionary/preparedness actions...

A Small Craft Advisory means that winds speeds of 25 to 33 knots
and/or seas 10 feet or greater are expected to produce conditions
hazardous to small craft. Inexperienced mariners... especially
those operating smaller vessels... should avoid navigating in
these conditions.


Donaldson